Regional Weather Roundup
Issued by NWS

Home | Current Version | Previous Version | Text Only | Print | Product List | Glossary On
Versions: 1 2 3 4 5 6 7 8 9 10 11 12 13 14 15 16 17 18 19 20 21 22 23 24 25 26 27 28 29 30 31 32 33 34 35 36 37 38 39 40 41 42 43 44 45 46 47 48 49 50
000
ASUS43 KTOP 241859
RWRKS

WEATHER ROUNDUP FOR KANSAS
NATIONAL WEATHER SERVICE GOODLAND KS
100 PM CST WED DEC 24 2014

NOTE:  "FAIR" INDICATES FEW OR NO CLOUDS BELOW 12,000 FEET WITH NO
SIGNIFICANT WEATHER AND/OR OBSTRUCTIONS TO VISIBILITY.

KSZ001>006-013>018-027>032-041>047-242000-
NORTHWEST KANSAS

CITY           SKY/WX    TMP DP  RH WIND       PRES   REMARKS
GOODLAND       SUNNY     37  17  44 SW18      29.81F WCI  27
HAYS           SUNNY     41  18  38 NW16      29.89F
HILL CITY      SUNNY     40  20  44 W9        29.86F
RUSSELL        SUNNY     39  24  55 W13       29.87F WCI  31
$$

KSZ061>065-074>080-084>089-242000-
SOUTHWEST KANSAS

CITY           SKY/WX    TMP DP  RH WIND       PRES   REMARKS
DODGE CITY     SUNNY     40  22  48 W15       29.93F WCI  32
ELKHART          N/A     42  13  30 SW10        N/A
GARDEN CITY    SUNNY     38  18  44 W14       29.91F WCI  30
GREAT BEND     SUNNY     39  23  52 NW12      29.90F WCI  32
LIBERAL        SUNNY     41  23  48 W9        29.97F
$$

KSZ066>073-081>083-090>101-242000-
SOUTHEAST KANSAS

CITY           SKY/WX    TMP DP  RH WIND       PRES   REMARKS
CHANUTE        CLOUDY    37  31  78 NW15      29.89F WCI  28
COFFEYVILLE    CLOUDY    38  30  73 NW12      29.91F WCI  30
HUTCHINSON     MOSUNNY   40  27  59 NW12      29.91F WCI  33
NEWTON         CLOUDY    34  25  69 W13       29.92S WCI  25
PARSONS        CLOUDY    38  31  76 W14G21    29.91F WCI  30
WICHITA INTL   PTSUNNY   38  28  67 NW8       29.91F
WICHITA JABRA  CLOUDY    35  28  75 NW10      29.91F WCI  27
WINFIELD       CLOUDY    38  31  76 W8        29.94F
$$

KSZ007>012-019>026-033>040-048>060-102>105-242000-
NORTHEAST KANSAS

CITY           SKY/WX    TMP DP  RH WIND       PRES   REMARKS
CONCORDIA      CLOUDY    34  29  82 W12       29.86F WCI  25
EMPORIA        CLOUDY    34  29  82 W7        29.87F
LAWRENCE       CLOUDY    36  30  79 NW15      29.85F WCI  27
MANHATTAN      CLOUDY    34  29  82 VRB3      29.88F
OLATHE IND     CLOUDY    35  32  88 W16       29.84F WCI  25
OLATHE EXE     CLOUDY    36  31  82 NW14      29.81F WCI  27
SALINA         CLOUDY    36  29  75 W12       29.89F WCI  28
TOPEKA BILLARD CLOUDY    37  31  78 W12       29.87F WCI  29
TOPEKA FORBES  CLOUDY    36  30  79 NW13      29.86F WCI  27
$$


USA.gov is the U.S. government's official web portal to all federal, state and local government web resources and services.